Location: Ferchesar
(52.6477°N, 12.4298°E)
Time: 10:50:08
(UTC+01:00)

AO-73 - Pass Details

Date: 01 November 2021
Orbit: 581 x 661 km, 97.6° (Epoch: 28 November)

Event Time Altitude Azimuth Distance (km) Brightness Sun altitude
Rises 04:09:48 0° 21° (NNE) 2,841 ? -27.2°
Reaches altitude 10° 04:12:11 10° 32° (NNE) 1,944 ? -26.8°
Maximum altitude 04:15:55 30° 95° (E) 1,089 ? -26.2°
Drops below altitude 10° 04:19:42 10° 157° (SSE) 1,969 ? -25.7°
Sets 04:22:07 0° 168° (SSE) 2,884 ? -25.3°
